Regional Weather Roundup
Issued by NWS

Home | Current Version | Previous Version | Text Only | Print | Product List | Glossary Off
Versions: 1 2 3 4 5 6 7 8 9 10 11 12 13 14 15 16 17 18 19 20 21 22 23 24 25 26 27 28 29 30 31 32 33 34 35 36 37 38 39 40 41 42 43 44 45 46 47 48 49

000
ASUS45 KCYS 020210
RWRWY

WYOMING REGIONAL WEATHER ROUNDUP
NATIONAL WEATHER SERVICE CHEYENNE WY
800 PM MDT SAT AUG 01 2015

NOTE:  "FAIR" INDICATES FEW OR NO CLOUDS BELOW 12,000 FEET
WITH NO SIGNIFICANT WEATHER AND/OR OBSTRUCTIONS TO VISIBILITY.

WYZ001-020300-
YELLOWSTONE NATIONAL PARK

CITY           SKY/WX    TMP DP  RH WIND       PRES   REMARKS
LK YELLOWSTONE   N/A     69  37  30 CALM      30.32S
W YELLOWSTONE  NOT AVBL

$$
WYZ002>013-054>058-071-098>099-020300-
NORTHERN WYOMING

CITY           SKY/WX    TMP DP  RH WIND       PRES   REMARKS
JACKSON        CLEAR     79  30  17 W7        30.18F
CODY           FAIR      82  36  18 N3        30.06R
GREYBULL       FAIR      93  23   8 N7        29.93F
WORLAND        FAIR      90  31  12 CALM      29.96F
SHERIDAN       FAIR      77  46  33 W5        29.96F
BUFFALO        FAIR      84  31  14 NW13      30.06S
GILLETTE       FAIR      80  37  21 NW7       29.99S
HULETT         FAIR      84  37  18 E3        29.99R
NEWCASTLE      FAIR      84  28  13 MISG      29.98S

$$
WYZ014>020-022>026-101>103-020300-
CENTRAL WYOMING

CITY           SKY/WX    TMP DP  RH WIND       PRES   REMARKS
BIG PINEY      FAIR      77  28  16 NW9       30.23S
PINEDALE       FAIR      73  28  19 W8        30.24R
DUBOIS         FAIR      77  21  12 NW9       30.22R
LANDER         FAIR      82  33  17 NE6       30.06R
RIVERTON       FAIR      84  28  13 E7        30.07S
CASPER         FAIR      83  24  11 NW8       30.05S
DOUGLAS        FAIR      84  32  15 E6        30.03S

$$
WYZ021-027>030-104>119-020300-
SOUTHERN WYOMING

CITY           SKY/WX    TMP DP  RH WIND       PRES   REMARKS
EVANSTON       FAIR      79  22  12 N8        30.23S
KEMMERER       FAIR      79  23  12 NW12      30.24R
FORT BRIDGER   CLEAR     82  23  11 N3        30.24R
ROCK SPRINGS   FAIR      79  28  15 W7        30.18R
DIXON          FAIR      82  36  19 CALM      30.17S
RAWLINS        FAIR      80  29  15 N8        30.18R
SARATOGA       FAIR      79  28  15 W7        30.19S
LARAMIE        FAIR      73  41  31 E9        30.22R
CHEYENNE       FAIR      79  46  31 E5        30.14R
TORRINGTON     FAIR      76  56  49 SE13      29.99R
PINE BLUFFS    FAIR      73  54  49 E13G21    30.09R

$$



USA.gov is the U.S. government's official web portal to all federal, state and local government web resources and services.